Location: Beneden-Haastrecht
(52.0012°N, 4.7557°E)
Time: 10:24:13
(UTC+00:00)

Cosmos 2098 Rocket - Pass Details

Date: 24 October 2020
Orbit: 366 x 1184 km, 82.9° (Epoch: 24 November)

Event Time Altitude Azimuth Distance (km) Brightness Sun altitude
Rises 17:17:01 0° 344° (NNW) 2,574 6.3 -8.3°
Reaches altitude 10° 17:19:23 10° 335° (NNW) 1,584 5.4 -8.6°
Maximum altitude 17:22:26 34° 269° (W) 698 4.2 -9.1°
Drops below altitude 10° 17:25:10 10° 202° (SSW) 1,396 5.3 -9.5°
Sets 17:27:07 0° 192° (SSW) 2,212 6.2 -9.8°
